Location: Unspecified
(50.1700°N, 6.8600°E)
Time: 15:07:24
(UTC+00:00)

IRS-1C Rocket - Pass Details

Date: 24 January 2019
Orbit: 801 x 805 km, 99.0° (Epoch: 17 October)

Event Time Altitude Azimuth Distance (km) Brightness Sun altitude
Rises 05:31:22 0° 13° (NNE) 3,329 7.3 -16.7°
Reaches altitude 10° 05:33:43 10° 12° (NNE) 2,395 6.6 -16.4°
Maximum altitude 05:38:58 70° 289° (WNW) 858 4.0 -15.6°
Drops below altitude 10° 05:44:12 10° 207° (SSW) 2,380 6.4 -14.7°
Sets 05:46:32 0° 205° (SSW) 3,307 7.2 -14.4°
